CAL732 WMKP-RCTP

Flight info

Callsign CAL732
Flight time 4h 12m
Altitude 33000
Route BETNU1A BETNU W546 VKB M765 IGARI/K0878F330 M765 ALDAS/K0876F320 L625 ANOKI/N0472F320 L625 AKOTA/N0466F350 L625 ABVAR M646 POTIB Q14 TNN TNN1A
Aircraft A21N/M-SDE3FGHIRWY/LB1

Departure

Time 2026-05-04 14:51
Airport Penang International Airport (WMKP)

Arrival

Time 2026-05-04 19:04
Airport Taiwan Taoyuan International Airport (RCTP)
Time Latitude Longitude Altitude Speed Heading
2026-05-04 14:29 5.29131 100.26569 27 ft 0 kts 312°
2026-05-04 14:44 5.29122 100.26578 27 ft 2 kts 311°
2026-05-04 14:44 5.29112 100.26589 27 ft 2 kts 312°
2026-05-04 14:45 5.29102 100.26601 26 ft 2 kts 311°
2026-05-04 14:45 5.29095 100.26608 26 ft 1 kts 312°
2026-05-04 14:45 5.29087 100.26621 26 ft 2 kts 284°
2026-05-04 14:45 5.29085 100.26635 26 ft 2 kts 263°
2026-05-04 14:46 5.29089 100.26650 26 ft 2 kts 239°
2026-05-04 14:46 5.29095 100.26657 26 ft 0 kts 223°
2026-05-04 14:46 5.29101 100.26662 26 ft 0 kts 221°
2026-05-04 14:48 5.29100 100.26661 26 ft 0 kts 221°
2026-05-04 14:48 5.29089 100.26652 26 ft 3 kts 222°
2026-05-04 14:48 5.29061 100.26625 26 ft 7 kts 226°
2026-05-04 14:48 5.29014 100.26575 26 ft 11 kts 221°
2026-05-04 14:49 5.28947 100.26516 26 ft 14 kts 222°
2026-05-04 14:49 5.28896 100.26472 26 ft 6 kts 213°
2026-05-04 14:49 5.28852 100.26480 25 ft 8 kts 139°
2026-05-04 14:49 5.28809 100.26527 24 ft 9 kts 131°
2026-05-04 14:50 5.28749 100.26570 23 ft 11 kts 167°
2026-05-04 14:50 5.28674 100.26605 21 ft 12 kts 134°
2026-05-04 14:50 5.28640 100.26685 21 ft 12 kts 87°
2026-05-04 14:50 5.28710 100.26771 21 ft 34 kts 43°
2026-05-04 14:51 5.29069 100.27098 22 ft 102 kts 42°
2026-05-04 14:51 5.29749 100.27713 22 ft 159 kts 41°
2026-05-04 14:51 5.30675 100.28544 198 ft 189 kts 42°
2026-05-04 14:51 5.31648 100.29423 861 ft 188 kts 42°
2026-05-04 14:52 5.32623 100.30287 1532 ft 190 kts 42°
2026-05-04 14:52 5.33598 100.31156 2117 ft 188 kts 42°
2026-05-04 14:52 5.34614 100.32065 2412 ft 201 kts 42°
2026-05-04 14:52 5.35694 100.33038 2686 ft 215 kts 43°
2026-05-04 14:53 5.36762 100.34171 2877 ft 235 kts 63°
2026-05-04 14:53 5.37153 100.35805 3137 ft 252 kts 87°
2026-05-04 14:53 5.37225 100.37553 3501 ft 264 kts 87°
2026-05-04 14:53 5.37331 100.39384 4112 ft 266 kts 86°
2026-05-04 14:54 5.37449 100.41241 4794 ft 266 kts 86°
2026-05-04 14:54 5.37575 100.43086 5434 ft 268 kts 85°
2026-05-04 14:54 5.37729 100.44939 6087 ft 269 kts 84°
2026-05-04 14:54 5.37886 100.46714 6677 ft 271 kts 84°
2026-05-04 14:55 5.38052 100.48611 7261 ft 273 kts 85°
2026-05-04 14:55 5.38215 100.50514 7802 ft 276 kts 84°
2026-05-04 14:55 5.38376 100.52432 8355 ft 277 kts 84°
2026-05-04 14:55 5.38538 100.54357 8862 ft 279 kts 84°
2026-05-04 14:56 5.38698 100.56281 9340 ft 282 kts 84°
2026-05-04 14:56 5.38861 100.58251 9847 ft 283 kts 84°
2026-05-04 14:56 5.39022 100.60214 10285 ft 286 kts 85°
2026-05-04 14:56 5.39190 100.62247 10502 ft 297 kts 84°
2026-05-04 14:57 5.39363 100.64323 10706 ft 309 kts 85°
2026-05-04 14:57 5.39547 100.66538 10916 ft 320 kts 85°
2026-05-04 14:57 5.39734 100.68797 11120 ft 331 kts 85°
2026-05-04 14:57 5.39926 100.71127 11314 ft 342 kts 85°
2026-05-04 14:58 5.40125 100.73556 11504 ft 353 kts 85°
2026-05-04 14:58 5.40328 100.76035 11681 ft 363 kts 85°
2026-05-04 14:58 5.40537 100.78591 11929 ft 370 kts 85°
2026-05-04 14:58 5.40746 100.81165 12334 ft 372 kts 85°
2026-05-04 14:59 5.40955 100.83721 12745 ft 374 kts 85°
2026-05-04 14:59 5.41167 100.86333 13141 ft 375 kts 85°
2026-05-04 14:59 5.41596 100.91578 13914 ft 378 kts 85°
2026-05-04 15:00 5.41810 100.94203 14263 ft 380 kts 85°
2026-05-04 15:00 5.42025 100.96848 14591 ft 383 kts 85°
2026-05-04 15:00 5.42241 100.99506 14940 ft 384 kts 85°
2026-05-04 15:01 5.42712 101.04875 15547 ft 389 kts 83°
2026-05-04 15:01 5.43113 101.07565 15831 ft 391 kts 80°
2026-05-04 15:01 5.43601 101.10239 16150 ft 392 kts 79°
2026-05-04 15:01 5.44103 101.12933 16450 ft 394 kts 79°
2026-05-04 15:02 5.44607 101.15636 16713 ft 396 kts 79°
2026-05-04 15:02 5.45110 101.18343 16986 ft 397 kts 79°
2026-05-04 15:02 5.45619 101.21085 17249 ft 399 kts 79°
2026-05-04 15:02 5.46130 101.23835 17492 ft 402 kts 80°
2026-05-04 15:03 5.46641 101.26592 17753 ft 403 kts 80°
2026-05-04 15:03 5.47153 101.29355 18001 ft 405 kts 80°
2026-05-04 15:03 5.47666 101.32130 18221 ft 407 kts 80°
2026-05-04 15:03 5.48185 101.34934 18445 ft 410 kts 80°
2026-05-04 15:04 5.48700 101.37722 18677 ft 411 kts 80°
2026-05-04 15:04 5.49225 101.40562 18925 ft 412 kts 80°
2026-05-04 15:04 5.49747 101.43380 19145 ft 414 kts 80°
2026-05-04 15:04 5.50272 101.46226 19376 ft 415 kts 80°
2026-05-04 15:05 5.50802 101.49093 19576 ft 417 kts 80°
2026-05-04 15:05 5.51326 101.51933 19783 ft 419 kts 80°
2026-05-04 15:05 5.51863 101.54837 20017 ft 420 kts 80°
2026-05-04 15:05 5.52390 101.57694 20226 ft 421 kts 80°
2026-05-04 15:06 5.52924 101.60589 20430 ft 423 kts 80°
2026-05-04 15:06 5.53463 101.63511 20639 ft 424 kts 80°
2026-05-04 15:06 5.53999 101.66420 20828 ft 425 kts 80°
2026-05-04 15:07 5.55075 101.72261 21224 ft 428 kts 80°
2026-05-04 15:07 5.55612 101.75178 21416 ft 429 kts 80°
2026-05-04 15:07 5.56158 101.78142 21601 ft 430 kts 80°
2026-05-04 15:07 5.56697 101.81067 21764 ft 431 kts 80°
2026-05-04 15:08 5.57239 101.84016 21928 ft 432 kts 80°
2026-05-04 15:08 5.57787 101.86992 22094 ft 434 kts 80°
2026-05-04 15:08 5.58351 101.89983 22258 ft 435 kts 78°
2026-05-04 15:08 5.59395 101.92829 22362 ft 438 kts 62°
2026-05-04 15:09 5.61200 101.95290 22515 ft 441 kts 47°
2026-05-04 15:09 5.63591 101.97208 22684 ft 443 kts 35°
2026-05-04 15:09 5.66205 101.98898 22864 ft 444 kts 34°
2026-05-04 15:10 5.71432 102.02248 23145 ft 447 kts 34°
2026-05-04 15:10 5.74050 102.03935 23293 ft 448 kts 34°
2026-05-04 15:10 5.79313 102.07342 23613 ft 450 kts 34°
2026-05-04 15:11 5.81946 102.09049 23784 ft 450 kts 34°
2026-05-04 15:11 5.84559 102.10746 23947 ft 450 kts 34°
2026-05-04 15:11 5.87214 102.12470 24104 ft 451 kts 34°
2026-05-04 15:11 5.89841 102.14178 24257 ft 452 kts 34°
2026-05-04 15:12 5.92503 102.15907 24392 ft 453 kts 34°
2026-05-04 15:12 5.95128 102.17614 24531 ft 453 kts 34°
2026-05-04 15:12 5.97790 102.19345 24662 ft 454 kts 34°
2026-05-04 15:12 6.00441 102.21069 24799 ft 455 kts 34°
2026-05-04 15:13 6.03123 102.22814 24934 ft 456 kts 34°
2026-05-04 15:13 6.05798 102.24555 25055 ft 457 kts 34°
2026-05-04 15:13 6.08449 102.26280 25192 ft 457 kts 34°
2026-05-04 15:13 6.11128 102.28023 25326 ft 458 kts 34°
2026-05-04 15:14 6.13741 102.29825 25447 ft 457 kts 39°
2026-05-04 15:14 6.16127 102.31966 25571 ft 457 kts 46°
2026-05-04 15:14 6.18191 102.34399 25682 ft 457 kts 54°
2026-05-04 15:14 6.19968 102.37049 25786 ft 458 kts 58°
2026-05-04 15:15 6.21660 102.39731 25929 ft 458 kts 58°
2026-05-04 15:15 6.23358 102.42453 26119 ft 457 kts 58°
2026-05-04 15:15 6.25032 102.45134 26297 ft 456 kts 58°
2026-05-04 15:16 6.28429 102.50552 26586 ft 456 kts 58°
2026-05-04 15:16 6.30112 102.53230 26771 ft 454 kts 58°
2026-05-04 15:16 6.33478 102.58579 27077 ft 454 kts 58°
2026-05-04 15:17 6.35170 102.61266 27235 ft 453 kts 58°
2026-05-04 15:17 6.38526 102.66597 27588 ft 452 kts 58°
2026-05-04 15:17 6.40200 102.69257 27760 ft 451 kts 58°
2026-05-04 15:18 6.41879 102.71925 27910 ft 451 kts 58°
2026-05-04 15:18 6.43568 102.74611 28062 ft 451 kts 58°
2026-05-04 15:18 6.45235 102.77262 28244 ft 450 kts 58°
2026-05-04 15:19 6.48557 102.82558 28571 ft 450 kts 58°
2026-05-04 15:19 6.50188 102.85262 28727 ft 450 kts 59°
2026-05-04 15:19 6.53390 102.90659 29084 ft 449 kts 59°
2026-05-04 15:20 6.54979 102.93337 29271 ft 448 kts 59°
2026-05-04 15:20 6.56574 102.96024 29458 ft 447 kts 59°
2026-05-04 15:20 6.58167 102.98704 29629 ft 447 kts 59°
2026-05-04 15:20 6.59768 103.01398 29794 ft 447 kts 59°
2026-05-04 15:21 6.61359 103.04072 29973 ft 446 kts 59°
2026-05-04 15:21 6.62955 103.06755 30138 ft 446 kts 59°
2026-05-04 15:21 6.66141 103.12115 30483 ft 446 kts 59°
2026-05-04 15:22 6.67719 103.14769 30668 ft 445 kts 59°
2026-05-04 15:22 6.69304 103.17433 30848 ft 444 kts 59°
2026-05-04 15:22 6.72478 103.22772 31176 ft 444 kts 60°
2026-05-04 15:23 6.73951 103.25252 31296 ft 445 kts 60°
2026-05-04 15:23 6.75537 103.27921 31422 ft 446 kts 60°
2026-05-04 15:23 6.77124 103.30595 31552 ft 446 kts 60°
2026-05-04 15:23 6.78709 103.33263 31673 ft 447 kts 60°
2026-05-04 15:24 6.81907 103.38652 31946 ft 447 kts 60°
2026-05-04 15:24 6.85084 103.44007 32199 ft 448 kts 60°
2026-05-04 15:25 6.86700 103.46731 32330 ft 449 kts 60°
2026-05-04 15:25 6.88283 103.49403 32466 ft 449 kts 60°
2026-05-04 15:25 6.89870 103.52081 32614 ft 449 kts 60°
2026-05-04 15:26 6.93089 103.57508 32871 ft 450 kts 60°
2026-05-04 15:26 6.97944 103.65596 32877 ft 451 kts 60°
2026-05-04 15:27 7.02805 103.73677 32878 ft 451 kts 60°
2026-05-04 15:28 7.07674 103.81787 32877 ft 453 kts 60°
2026-05-04 15:29 7.12551 103.89919 32877 ft 452 kts 60°
2026-05-04 15:30 7.23905 104.08875 32877 ft 453 kts 60°
2026-05-04 15:31 7.28766 104.17021 32878 ft 453 kts 60°
2026-05-04 15:32 7.36841 104.30643 32877 ft 453 kts 60°
2026-05-04 15:34 7.44835 104.44148 32877 ft 454 kts 60°
2026-05-04 15:34 7.49669 104.52319 32878 ft 453 kts 60°
2026-05-04 15:35 7.54506 104.60499 32877 ft 453 kts 60°
2026-05-04 15:36 7.59353 104.68704 32878 ft 453 kts 60°
2026-05-04 15:36 7.62559 104.74131 32877 ft 453 kts 60°
2026-05-04 15:37 7.65777 104.79579 32877 ft 453 kts 60°
2026-05-04 15:37 7.68999 104.85040 32877 ft 453 kts 60°
2026-05-04 15:38 7.72201 104.90466 32877 ft 453 kts 60°
2026-05-04 15:38 7.75422 104.95928 32878 ft 452 kts 60°
2026-05-04 15:39 7.78630 105.01371 32877 ft 452 kts 61°
2026-05-04 15:40 7.83434 105.09521 32878 ft 451 kts 61°
2026-05-04 15:40 7.86646 105.14977 32878 ft 452 kts 61°
2026-05-04 15:41 7.89856 105.20429 32877 ft 452 kts 61°
2026-05-04 15:41 7.93053 105.25866 32877 ft 453 kts 61°
2026-05-04 15:42 7.96271 105.31342 32877 ft 453 kts 61°
2026-05-04 15:42 7.99476 105.36790 32877 ft 453 kts 61°
2026-05-04 15:43 8.02705 105.42264 32877 ft 454 kts 60°
2026-05-04 15:43 8.05914 105.47704 32878 ft 453 kts 61°
2026-05-04 15:44 8.09148 105.53193 32877 ft 453 kts 61°
2026-05-04 15:44 8.12363 105.58657 32877 ft 453 kts 61°
2026-05-04 15:45 8.15585 105.64139 32878 ft 454 kts 61°
2026-05-04 15:45 8.18802 105.69610 32878 ft 454 kts 61°
2026-05-04 15:46 8.22016 105.75077 32878 ft 454 kts 61°
2026-05-04 15:46 8.25245 105.80574 32878 ft 454 kts 61°
2026-05-04 15:47 8.28451 105.86033 32876 ft 455 kts 61°
2026-05-04 15:47 8.31683 105.91541 32877 ft 455 kts 61°
2026-05-04 15:48 8.34891 105.97010 32877 ft 455 kts 61°
2026-05-04 15:48 8.39738 106.05274 32877 ft 455 kts 61°
2026-05-04 15:49 8.42956 106.10767 32877 ft 454 kts 61°
2026-05-04 15:49 8.46162 106.16238 32877 ft 455 kts 61°
2026-05-04 15:50 8.49380 106.21732 32877 ft 454 kts 61°
2026-05-04 15:50 8.52588 106.27213 32878 ft 455 kts 61°
2026-05-04 15:51 8.55800 106.32700 32877 ft 455 kts 61°
2026-05-04 15:51 8.59019 106.38209 32877 ft 456 kts 61°
2026-05-04 15:52 8.62242 106.43722 32877 ft 455 kts 61°
2026-05-04 15:52 8.65438 106.49197 32877 ft 455 kts 61°
2026-05-04 15:53 8.68662 106.54720 32877 ft 454 kts 61°
2026-05-04 15:53 8.71803 106.60134 32877 ft 455 kts 62°
2026-05-04 15:54 8.74604 106.65878 32877 ft 455 kts 69°
2026-05-04 15:54 8.77011 106.71769 32877 ft 454 kts 69°
2026-05-04 15:55 8.79399 106.77677 32878 ft 454 kts 69°
2026-05-04 15:55 8.81771 106.83544 32888 ft 453 kts 69°
2026-05-04 15:56 8.84164 106.89463 32891 ft 454 kts 69°
2026-05-04 15:56 8.86541 106.95338 32882 ft 454 kts 69°
2026-05-04 15:57 8.88928 107.01237 32881 ft 454 kts 69°
2026-05-04 15:57 8.91324 107.07162 32879 ft 454 kts 69°
2026-05-04 15:58 8.93715 107.13076 32878 ft 454 kts 69°
2026-05-04 15:58 8.96082 107.18940 32879 ft 454 kts 69°
2026-05-04 15:59 8.98477 107.24879 32877 ft 455 kts 69°
2026-05-04 15:59 9.00854 107.30769 32878 ft 454 kts 69°
2026-05-04 16:00 9.03243 107.36697 32878 ft 454 kts 69°
2026-05-04 16:00 9.05620 107.42594 32877 ft 454 kts 69°
2026-05-04 16:01 9.07995 107.48488 32877 ft 453 kts 69°
2026-05-04 16:01 9.10381 107.54417 32877 ft 454 kts 69°
2026-05-04 16:02 9.12772 107.60360 32877 ft 454 kts 69°
2026-05-04 16:03 9.16331 107.69214 32878 ft 454 kts 69°
2026-05-04 16:03 9.18710 107.75135 32877 ft 454 kts 69°
2026-05-04 16:04 9.21089 107.81059 32877 ft 454 kts 69°
2026-05-04 16:04 9.24638 107.89906 32877 ft 454 kts 69°
2026-05-04 16:05 9.27006 107.95812 32877 ft 455 kts 69°
2026-05-04 16:06 9.30569 108.04703 32876 ft 454 kts 69°
2026-05-04 16:07 9.35248 108.16393 32876 ft 453 kts 69°
2026-05-04 16:08 9.39966 108.28198 32875 ft 454 kts 69°
2026-05-04 16:09 9.45861 108.42971 32869 ft 452 kts 69°
2026-05-04 16:10 9.50600 108.54752 32866 ft 453 kts 68°
2026-05-04 16:11 9.55332 108.66523 32859 ft 452 kts 68°
2026-05-04 16:12 9.62444 108.84250 32872 ft 453 kts 68°
2026-05-04 16:13 9.67184 108.96085 32879 ft 454 kts 68°
2026-05-04 16:14 9.71919 109.07918 32878 ft 455 kts 68°
2026-05-04 16:16 9.77844 109.22757 32880 ft 455 kts 68°
2026-05-04 16:17 9.83771 109.37588 32880 ft 454 kts 68°
2026-05-04 16:18 9.88507 109.49468 32880 ft 455 kts 68°
2026-05-04 16:19 9.94418 109.64313 32877 ft 454 kts 68°
2026-05-04 16:20 10.00318 109.79161 32881 ft 455 kts 68°
2026-05-04 16:22 10.06208 109.93993 32877 ft 454 kts 68°
2026-05-04 16:23 10.13262 110.11807 32880 ft 453 kts 68°
2026-05-04 16:25 10.20280 110.29562 32881 ft 453 kts 68°
2026-05-04 16:26 10.28474 110.50328 32873 ft 454 kts 68°
2026-05-04 16:28 10.34294 110.65131 32872 ft 454 kts 67°
2026-05-04 16:29 10.42485 110.85998 32876 ft 456 kts 67°
2026-05-04 16:31 10.48342 111.00949 32878 ft 457 kts 67°
2026-05-04 16:32 10.55357 111.18881 32875 ft 457 kts 67°
2026-05-04 16:33 10.60041 111.30875 32878 ft 457 kts 67°
2026-05-04 16:34 10.63556 111.39886 32881 ft 458 kts 67°
2026-05-04 16:35 10.70561 111.57870 32877 ft 457 kts 67°
2026-05-04 16:36 10.74028 111.66787 32877 ft 458 kts 67°
2026-05-04 16:37 10.77530 111.75800 32877 ft 459 kts 67°
2026-05-04 16:38 10.82199 111.87838 32877 ft 458 kts 67°
2026-05-04 16:39 10.88031 112.02895 32874 ft 460 kts 68°
2026-05-04 16:40 10.92989 112.14848 32874 ft 457 kts 60°
2026-05-04 16:41 11.03449 112.26810 33350 ft 453 kts 36°
2026-05-04 16:42 11.11111 112.32417 33864 ft 453 kts 35°
2026-05-04 16:43 11.16223 112.36144 33865 ft 452 kts 35°
2026-05-04 16:43 11.23893 112.41753 33865 ft 452 kts 35°
2026-05-04 16:45 11.39208 112.52985 33872 ft 453 kts 35°
2026-05-04 16:46 11.52039 112.62408 33876 ft 454 kts 35°
2026-05-04 16:47 11.62308 112.69969 33874 ft 455 kts 35°
2026-05-04 16:48 11.72489 112.77477 33874 ft 455 kts 35°
2026-05-04 16:49 11.82737 112.85046 33875 ft 456 kts 35°
2026-05-04 16:50 11.93049 112.92664 33872 ft 458 kts 35°
2026-05-04 16:51 12.00817 112.98411 33878 ft 458 kts 35°
2026-05-04 16:52 12.11014 113.05964 33877 ft 458 kts 34°
2026-05-04 16:53 12.18635 113.11610 33878 ft 457 kts 35°
2026-05-04 16:54 12.28939 113.19256 33881 ft 458 kts 34°
2026-05-04 16:55 12.44441 113.30747 33879 ft 457 kts 34°
2026-05-04 16:56 12.57322 113.40296 33877 ft 458 kts 34°
2026-05-04 16:57 12.65076 113.46055 33880 ft 458 kts 34°
2026-05-04 16:58 12.75416 113.53739 33880 ft 458 kts 34°
2026-05-04 17:00 12.90883 113.65252 33876 ft 458 kts 34°
2026-05-04 17:01 13.03812 113.74888 33877 ft 458 kts 34°
2026-05-04 17:02 13.14131 113.82587 33881 ft 460 kts 34°
2026-05-04 17:03 13.21867 113.88365 33883 ft 459 kts 34°
2026-05-04 17:03 13.29630 113.94170 33886 ft 459 kts 34°
2026-05-04 17:04 13.39968 114.01904 33888 ft 460 kts 34°
2026-05-04 17:05 13.50316 114.09656 33890 ft 461 kts 34°
2026-05-04 17:06 13.58072 114.15471 33889 ft 461 kts 34°
2026-05-04 17:07 13.65006 114.20674 33890 ft 460 kts 34°
2026-05-04 17:07 13.71037 114.25205 33893 ft 460 kts 34°
2026-05-04 17:08 13.78799 114.31040 33894 ft 461 kts 34°
2026-05-04 17:09 13.83962 114.34924 33894 ft 462 kts 34°
2026-05-04 17:09 13.89176 114.38851 33890 ft 462 kts 34°
2026-05-04 17:10 14.01471 114.49449 33886 ft 464 kts 45°
2026-05-04 17:11 14.05911 114.54282 33881 ft 464 kts 45°
2026-05-04 17:12 14.12546 114.61531 33880 ft 464 kts 45°
2026-05-04 17:13 14.23626 114.73628 33882 ft 465 kts 45°
2026-05-04 17:14 14.32518 114.83340 33883 ft 466 kts 45°
2026-05-04 17:15 14.39173 114.90617 33886 ft 466 kts 45°
2026-05-04 17:16 14.48075 115.00366 33887 ft 466 kts 45°
2026-05-04 17:17 14.56955 115.10099 33883 ft 467 kts 45°
2026-05-04 17:18 14.65882 115.19896 33879 ft 469 kts 45°
2026-05-04 17:19 14.74823 115.29725 33878 ft 470 kts 45°
2026-05-04 17:20 14.83783 115.39584 33882 ft 471 kts 45°
2026-05-04 17:20 14.90509 115.46994 33886 ft 472 kts 46°
2026-05-04 17:21 14.99474 115.56882 33888 ft 472 kts 46°
2026-05-04 17:22 15.03990 115.61869 33895 ft 474 kts 45°
2026-05-04 17:23 15.12992 115.71815 33898 ft 475 kts 46°
2026-05-04 17:24 15.19755 115.79301 33898 ft 475 kts 46°
2026-05-04 17:25 15.28772 115.89289 33898 ft 475 kts 46°
2026-05-04 17:26 15.37814 115.99317 33898 ft 476 kts 46°
2026-05-04 17:27 15.49098 116.11854 33898 ft 477 kts 46°
2026-05-04 17:28 15.58158 116.21937 33898 ft 477 kts 46°
2026-05-04 17:29 15.71736 116.37069 33897 ft 477 kts 46°
2026-05-04 17:31 15.83022 116.49673 33896 ft 478 kts 46°
2026-05-04 17:32 15.94370 116.62369 33975 ft 481 kts 46°
2026-05-04 17:33 16.01148 116.69965 34805 ft 476 kts 46°
2026-05-04 17:33 16.03384 116.72472 34876 ft 476 kts 46°
2026-05-04 17:34 16.12377 116.82563 34881 ft 476 kts 46°
2026-05-04 17:35 16.23619 116.95199 34883 ft 477 kts 46°
2026-05-04 17:36 16.28123 117.00269 34884 ft 477 kts 46°
2026-05-04 17:36 16.32653 117.05372 34885 ft 477 kts 45°
2026-05-04 17:37 16.37163 117.10457 34880 ft 478 kts 46°
2026-05-04 17:37 16.41635 117.15505 34877 ft 477 kts 45°
2026-05-04 17:38 16.46166 117.20622 34878 ft 478 kts 45°
2026-05-04 17:38 16.50664 117.25693 34877 ft 478 kts 45°
2026-05-04 17:39 16.57437 117.33343 34878 ft 479 kts 45°
2026-05-04 17:39 16.61937 117.38435 34877 ft 479 kts 45°
2026-05-04 17:40 16.66464 117.43563 34877 ft 479 kts 45°
2026-05-04 17:40 16.70959 117.48658 34878 ft 479 kts 45°
2026-05-04 17:41 16.75468 117.53773 34877 ft 479 kts 45°
2026-05-04 17:41 16.79977 117.58890 34876 ft 479 kts 45°
2026-05-04 17:42 16.84491 117.64018 34877 ft 480 kts 45°
2026-05-04 17:42 16.89004 117.69147 34875 ft 481 kts 46°
2026-05-04 17:43 16.93515 117.74277 34877 ft 481 kts 46°
2026-05-04 17:43 16.98051 117.79444 34878 ft 481 kts 46°
2026-05-04 17:44 17.02476 117.84489 34883 ft 481 kts 46°
2026-05-04 17:44 17.06997 117.89645 34882 ft 481 kts 45°
2026-05-04 17:45 17.11524 117.94810 34882 ft 481 kts 45°
2026-05-04 17:45 17.16053 117.99981 34889 ft 482 kts 45°
2026-05-04 17:46 17.20567 118.05141 34896 ft 483 kts 46°
2026-05-04 17:46 17.25117 118.10345 34893 ft 483 kts 46°
2026-05-04 17:47 17.29639 118.15524 34897 ft 482 kts 45°
2026-05-04 17:47 17.34145 118.20686 34895 ft 482 kts 45°
2026-05-04 17:48 17.38652 118.25854 34894 ft 482 kts 45°
2026-05-04 17:48 17.43177 118.31046 34889 ft 482 kts 45°
2026-05-04 17:49 17.47703 118.36243 34887 ft 482 kts 45°
2026-05-04 17:49 17.52232 118.41450 34886 ft 483 kts 45°
2026-05-04 17:50 17.56731 118.46626 34885 ft 483 kts 45°
2026-05-04 17:50 17.61286 118.51870 34885 ft 484 kts 45°
2026-05-04 17:51 17.65812 118.57085 34883 ft 484 kts 45°
2026-05-04 17:51 17.70332 118.62296 34885 ft 484 kts 45°
2026-05-04 17:52 17.74846 118.67505 34881 ft 484 kts 45°
2026-05-04 17:52 17.79365 118.72723 34883 ft 484 kts 46°
2026-05-04 17:53 17.83899 118.77964 34884 ft 485 kts 46°
2026-05-04 17:53 17.88434 118.83214 34880 ft 485 kts 46°
2026-05-04 17:54 17.92944 118.88439 34880 ft 485 kts 46°
2026-05-04 17:54 17.97490 118.93711 34879 ft 485 kts 46°
2026-05-04 17:55 18.02008 118.98950 34878 ft 485 kts 45°
2026-05-04 17:55 18.06565 119.04230 34871 ft 486 kts 45°
2026-05-04 17:56 18.11110 119.09506 34862 ft 486 kts 45°
2026-05-04 17:56 18.15638 119.14767 34860 ft 487 kts 46°
2026-05-04 17:57 18.20161 119.20029 34865 ft 487 kts 46°
2026-05-04 17:57 18.24702 119.25321 34865 ft 487 kts 46°
2026-05-04 17:58 18.29259 119.30634 34865 ft 487 kts 46°
2026-05-04 17:58 18.33786 119.35917 34865 ft 487 kts 45°
2026-05-04 17:59 18.38297 119.41185 34867 ft 487 kts 45°
2026-05-04 18:00 18.45125 119.49165 34866 ft 488 kts 45°
2026-05-04 18:00 18.49646 119.54456 34866 ft 489 kts 45°
2026-05-04 18:01 18.54213 119.59808 34870 ft 489 kts 46°
2026-05-04 18:01 18.58735 119.65113 34868 ft 489 kts 46°
2026-05-04 18:02 18.65557 119.73108 34869 ft 489 kts 46°
2026-05-04 18:02 18.70112 119.78451 34877 ft 490 kts 46°
2026-05-04 18:03 18.74662 119.83800 34887 ft 491 kts 46°
2026-05-04 18:03 18.79224 119.89167 34890 ft 492 kts 46°
2026-05-04 18:04 18.83793 119.94550 34895 ft 492 kts 46°
2026-05-04 18:05 18.90632 120.02612 34893 ft 492 kts 46°
2026-05-04 18:05 18.95204 120.08010 34894 ft 493 kts 46°
2026-05-04 18:06 19.02032 120.16078 34896 ft 493 kts 46°
2026-05-04 18:06 19.06619 120.21504 34903 ft 492 kts 46°
2026-05-04 18:07 19.11154 120.26874 34901 ft 492 kts 46°
2026-05-04 18:07 19.15711 120.32278 34896 ft 492 kts 46°
2026-05-04 18:08 19.20265 120.37682 34889 ft 491 kts 46°
2026-05-04 18:08 19.24806 120.43072 34892 ft 492 kts 46°
2026-05-04 18:09 19.33885 120.53873 34897 ft 491 kts 46°
2026-05-04 18:10 19.38871 120.58763 34895 ft 486 kts 32°
2026-05-04 18:10 19.44755 120.62091 34903 ft 477 kts 16°
2026-05-04 18:11 19.51142 120.63715 34903 ft 467 kts
2026-05-04 18:11 19.57616 120.64258 34906 ft 465 kts 359°
2026-05-04 18:12 19.64086 120.64734 34908 ft 465 kts 359°
2026-05-04 18:12 19.70544 120.65239 34910 ft 465 kts 360°
2026-05-04 18:13 19.76986 120.65756 34914 ft 465 kts 360°
2026-05-04 18:14 19.86705 120.66544 34912 ft 466 kts 360°
2026-05-04 18:14 19.93194 120.67073 34917 ft 466 kts 360°
2026-05-04 18:15 20.06127 120.68128 34919 ft 465 kts 360°
2026-05-04 18:16 20.12587 120.68656 34921 ft 465 kts 359°
2026-05-04 18:16 20.19044 120.69184 34922 ft 466 kts 359°
2026-05-04 18:17 20.28772 120.69979 34925 ft 466 kts 360°
2026-05-04 18:18 20.38487 120.70777 34927 ft 467 kts 359°
2026-05-04 18:18 20.44964 120.71308 34928 ft 467 kts 359°
2026-05-04 18:19 20.54662 120.72105 34931 ft 466 kts 359°
2026-05-04 18:19 20.61149 120.72638 34931 ft 466 kts 359°
2026-05-04 18:20 20.67648 120.73172 34932 ft 466 kts 359°
2026-05-04 18:20 20.74122 120.73705 34935 ft 466 kts 359°
2026-05-04 18:21 20.80612 120.74240 34932 ft 467 kts 359°
2026-05-04 18:21 20.87080 120.74774 34935 ft 467 kts 359°
2026-05-04 18:22 20.93563 120.75245 34936 ft 464 kts 356°
2026-05-04 18:22 20.99968 120.75101 34943 ft 458 kts 350°
2026-05-04 18:23 21.06276 120.74209 34954 ft 455 kts 343°
2026-05-04 18:23 21.12408 120.72726 34954 ft 452 kts 340°
2026-05-04 18:24 21.18569 120.71137 34960 ft 453 kts 340°
2026-05-04 18:24 21.24692 120.69563 34963 ft 452 kts 341°
2026-05-04 18:25 21.30813 120.67996 34963 ft 452 kts 341°
2026-05-04 18:25 21.36899 120.66438 34964 ft 451 kts 340°
2026-05-04 18:26 21.43023 120.64871 34969 ft 450 kts 340°
2026-05-04 18:26 21.49110 120.63307 34966 ft 451 kts 340°
2026-05-04 18:27 21.55225 120.61739 34967 ft 450 kts 340°
2026-05-04 18:27 21.61349 120.60165 34970 ft 450 kts 340°
2026-05-04 18:28 21.67420 120.58604 34969 ft 451 kts 340°
2026-05-04 18:28 21.73538 120.57027 34969 ft 450 kts 340°
2026-05-04 18:29 21.79651 120.55449 34971 ft 450 kts 340°
2026-05-04 18:29 21.85706 120.53894 34972 ft 449 kts 340°
2026-05-04 18:30 21.94835 120.51543 34970 ft 449 kts 340°
2026-05-04 18:31 22.00922 120.49974 34969 ft 449 kts 340°
2026-05-04 18:31 22.07029 120.48395 34973 ft 448 kts 340°
2026-05-04 18:32 22.13083 120.46830 34972 ft 448 kts 340°
2026-05-04 18:32 22.19206 120.45243 34971 ft 449 kts 340°
2026-05-04 18:33 22.25250 120.43679 34984 ft 448 kts 340°
2026-05-04 18:33 22.31351 120.42096 34980 ft 448 kts 340°
2026-05-04 18:34 22.37415 120.40523 34979 ft 448 kts 340°
2026-05-04 18:34 22.43509 120.38940 34983 ft 449 kts 339°
2026-05-04 18:35 22.49582 120.37360 34981 ft 448 kts 339°
2026-05-04 18:35 22.55663 120.35778 34983 ft 448 kts 339°
2026-05-04 18:36 22.61723 120.34199 34994 ft 448 kts 339°
2026-05-04 18:36 22.67774 120.32619 34991 ft 448 kts 339°
2026-05-04 18:37 22.73832 120.31038 35000 ft 448 kts 339°
2026-05-04 18:37 22.79902 120.29452 34999 ft 447 kts 339°
2026-05-04 18:38 22.85980 120.27864 35001 ft 448 kts 339°
2026-05-04 18:38 22.92054 120.26274 35004 ft 447 kts 339°
2026-05-04 18:39 22.98085 120.24693 35005 ft 448 kts 339°
2026-05-04 18:39 23.04161 120.23103 35007 ft 448 kts 339°
2026-05-04 18:40 23.10361 120.21915 35008 ft 455 kts 345°
2026-05-04 18:40 23.16696 120.21449 35006 ft 460 kts 352°
2026-05-04 18:41 23.23178 120.21748 35005 ft 467 kts 358°
2026-05-04 18:41 23.29653 120.22513 35005 ft 469 kts 359°
2026-05-04 18:42 23.36134 120.23308 35005 ft 469 kts 358°
2026-05-04 18:42 23.42648 120.24094 34992 ft 468 kts 358°
2026-05-04 18:42 23.45835 120.24477 34654 ft 467 kts 358°
2026-05-04 18:43 23.49122 120.24869 33776 ft 472 kts 358°
2026-05-04 18:43 23.52382 120.25256 32688 ft 481 kts 358°
2026-05-04 18:43 23.55726 120.25652 31630 ft 488 kts 358°
2026-05-04 18:43 23.59117 120.26054 30616 ft 493 kts 359°
2026-05-04 18:44 23.62558 120.26467 29623 ft 498 kts 359°
2026-05-04 18:44 23.64814 120.26739 28987 ft 500 kts 359°
2026-05-04 18:44 23.69472 120.27472 27693 ft 508 kts
2026-05-04 18:44 23.72876 120.28294 26748 ft 506 kts
2026-05-04 18:45 23.76218 120.29351 25940 ft 497 kts 12°
2026-05-04 18:45 23.79507 120.30487 25261 ft 491 kts 13°
2026-05-04 18:45 23.82729 120.31620 24776 ft 484 kts 13°
2026-05-04 18:45 23.85946 120.32752 24281 ft 480 kts 13°
2026-05-04 18:46 23.89095 120.33855 23810 ft 475 kts 13°
2026-05-04 18:46 23.92214 120.34943 23332 ft 471 kts 13°
2026-05-04 18:46 23.95349 120.36032 22855 ft 466 kts 13°
2026-05-04 18:46 23.98422 120.37099 22369 ft 462 kts 13°
2026-05-04 18:47 24.01384 120.38128 21892 ft 458 kts 13°
2026-05-04 18:47 24.04437 120.39190 21386 ft 454 kts 13°
2026-05-04 18:47 24.07332 120.40196 20883 ft 450 kts 13°
2026-05-04 18:47 24.10295 120.41225 20391 ft 447 kts 13°
2026-05-04 18:48 24.13273 120.42259 19875 ft 444 kts 13°
2026-05-04 18:48 24.16189 120.43273 19351 ft 441 kts 13°
2026-05-04 18:48 24.19109 120.44289 18825 ft 437 kts 13°
2026-05-04 18:48 24.21979 120.45287 18296 ft 434 kts 13°
2026-05-04 18:49 24.24858 120.46289 17791 ft 431 kts 13°
2026-05-04 18:49 24.27710 120.47283 17268 ft 429 kts 13°
2026-05-04 18:49 24.30299 120.48185 16749 ft 427 kts 13°
2026-05-04 18:49 24.33140 120.49192 16223 ft 426 kts 15°
2026-05-04 18:50 24.35748 120.50697 15413 ft 438 kts 33°
2026-05-04 18:50 24.38091 120.52882 14647 ft 438 kts 40°
2026-05-04 18:50 24.40287 120.55142 13737 ft 433 kts 40°
2026-05-04 18:50 24.42450 120.57350 12696 ft 426 kts 40°
2026-05-04 18:51 24.44641 120.59520 11631 ft 417 kts 39°
2026-05-04 18:51 24.46740 120.61551 11104 ft 397 kts 39°
2026-05-04 18:51 24.48798 120.63515 10670 ft 379 kts 38°
2026-05-04 18:51 24.50727 120.65342 10470 ft 352 kts 39°
2026-05-04 18:52 24.52508 120.67021 10383 ft 327 kts 38°
2026-05-04 18:52 24.54192 120.68606 10315 ft 313 kts 38°
2026-05-04 18:52 24.55829 120.70140 10239 ft 305 kts 38°
2026-05-04 18:52 24.57428 120.71637 10160 ft 300 kts 38°
2026-05-04 18:53 24.59009 120.73116 10097 ft 296 kts 38°
2026-05-04 18:53 24.60562 120.74571 9970 ft 295 kts 38°
2026-05-04 18:53 24.62147 120.76054 9627 ft 296 kts 38°
2026-05-04 18:53 24.63708 120.77518 9294 ft 295 kts 39°
2026-05-04 18:54 24.65259 120.78973 8963 ft 294 kts 39°
2026-05-04 18:54 24.66827 120.80445 8619 ft 293 kts 38°
2026-05-04 18:54 24.68376 120.81898 8287 ft 292 kts 38°
2026-05-04 18:54 24.69910 120.83334 7965 ft 290 kts 39°
2026-05-04 18:55 24.71440 120.84772 7637 ft 290 kts 39°
2026-05-04 18:55 24.74513 120.87664 6972 ft 288 kts 40°
2026-05-04 18:55 24.76029 120.89092 6635 ft 287 kts 40°
2026-05-04 18:56 24.77543 120.90514 6312 ft 286 kts 40°
2026-05-04 18:56 24.79058 120.91939 5987 ft 284 kts 40°
2026-05-04 18:56 24.80550 120.93346 5662 ft 283 kts 40°
2026-05-04 18:56 24.82033 120.94745 5336 ft 281 kts 40°
2026-05-04 18:57 24.83520 120.96146 5029 ft 279 kts 40°
2026-05-04 18:57 24.84984 120.97526 4697 ft 277 kts 40°
2026-05-04 18:57 24.86494 120.98821 4388 ft 273 kts 32°
2026-05-04 18:57 24.88090 120.99959 4147 ft 269 kts 36°
2026-05-04 18:58 24.89454 121.01281 4108 ft 255 kts 45°
2026-05-04 18:58 24.90664 121.02711 4092 ft 254 kts 48°
2026-05-04 18:58 24.91801 121.04147 4018 ft 244 kts 49°
2026-05-04 18:58 24.92872 121.05525 3924 ft 235 kts 49°
2026-05-04 18:59 24.93923 121.06879 3735 ft 226 kts 49°
2026-05-04 18:59 24.94923 121.08162 3421 ft 221 kts 48°
2026-05-04 18:59 24.95919 121.09431 3092 ft 212 kts 48°
2026-05-04 18:59 24.96848 121.10613 2851 ft 198 kts 48°
2026-05-04 19:00 24.97723 121.11725 2576 ft 188 kts 49°
2026-05-04 19:00 24.98550 121.12775 2304 ft 172 kts 50°
2026-05-04 19:00 24.99295 121.13721 2071 ft 158 kts 51°
2026-05-04 19:00 25.00004 121.14623 1881 ft 154 kts 52°
2026-05-04 19:01 25.00703 121.15510 1700 ft 146 kts 52°
2026-05-04 19:01 25.01341 121.16321 1506 ft 138 kts 52°
2026-05-04 19:01 25.01971 121.17120 1338 ft 137 kts 52°
2026-05-04 19:01 25.02590 121.17907 1170 ft 136 kts 53°
2026-05-04 19:02 25.03214 121.18699 995 ft 136 kts 53°
2026-05-04 19:02 25.03831 121.19482 816 ft 135 kts 53°
2026-05-04 19:02 25.04446 121.20264 635 ft 135 kts 53°
2026-05-04 19:02 25.05066 121.21056 459 ft 135 kts 54°
2026-05-04 19:03 25.05684 121.21829 279 ft 135 kts 53°
2026-05-04 19:03 25.06294 121.22608 140 ft 134 kts 54°
2026-05-04 19:03 25.06853 121.23329 115 ft 105 kts 46°
2026-05-04 19:03 25.07222 121.23799 115 ft 59 kts 50°
2026-05-04 19:04 25.07472 121.24081 115 ft 38 kts 40°
2026-05-04 19:04 25.07670 121.24214 115 ft 31 kts 20°
2026-05-04 19:04 25.07865 121.24300 114 ft 29 kts 31°
2026-05-04 19:04 25.07976 121.24428 114 ft 16 kts 47°
2026-05-04 19:05 25.08064 121.24445 114 ft 15 kts 316°
2026-05-04 19:05 25.08141 121.24369 114 ft 14 kts 294°
2026-05-04 19:05 25.08110 121.24279 114 ft 9 kts 251°
2026-05-04 19:05 25.08135 121.24233 114 ft 7 kts 313°
2026-05-04 19:06 25.08178 121.24191 114 ft 8 kts 319°
2026-05-04 19:06 25.08193 121.24161 114 ft 3 kts 268°
2026-05-04 19:06 25.08188 121.24133 114 ft 3 kts 255°
2026-05-04 19:06 25.08186 121.24129 114 ft 0 kts 251°
2026-05-04 19:07 25.08187 121.24129 114 ft 0 kts 251°